www.pogodaiklimat.ru

Погода и климат >> Архив погоды >> Россия >> Ямало-Ненецкий АО >> Тазовский


АРХИВ ПОГОДЫ в Тазовском

Время (UTC), дата Ветер
(напр.,м/с)
 
Видим.   Явления Облачность Т
(С)
Тd
(С)
f
(%)
Тe
(С)
Тes
(С)
Комфортность P
(гПа)
Po
(гПа)
Тmin
(С)
Tmax
(С)
R
(мм)
R24
(мм)
S
(см)
15 15.08 ЮВ 2 20 км 3/0
[Ac trans]
+17.9 +15.4 85 +18 +18 1014.4 1011.1 +24.0
18 15.08 ЮЗ 5-10
{10}
20 км 8/0
[Ac trans]
+16.5 +12.8 79 +16 +16 1015.3 1012.0
21 15.08 В 3
{10}
20 км 8/0
[Ac trans]
+14.6 +13.5 93 +14 +14 1014.6 1011.3
00 16.08 В 2
{10}
20 км слаб. ливневой дождь, в посл. час гроза 8/3 600 м
[Cb calv Ac trans Ci fib]
+13.8 +12.5 92 +13 +13 1015.2 1011.9
03 16.08 ЮВ 2 20 км гроза, ливневой дождь 9/5 750 м
[Cb calv Ac trans Ci fib]
+14.8 +13.9 94 +14 +16 1014.6 1011.3 +13.8 0.3
06 16.08 В 1 20 км в посл. час ливневой дождь {гроза} 9/5 960 м
[Cb cap Ac trans Ci fib]
+19.4 +15.6 79 +22 +25 комфорт 1014.1 1010.9
09 16.08 Ю 3 50 км {ливн. осадки} 8/3 1000 м
[Cu med, cong Ac trans Ci fib]
+22.8 +15.9 65 +27 +29 душно 1012.9 1009.7
12 16.08 Ю 4 20 км {ливн. осадки} 9/3 1000 м
[Cu med, cong Ci fib]
+23.3 +16.7 66 +28 +29 душно 1012.3 1009.1
15 16.08 Ю 3
{10}
20 км 10/3 1000 м
[Cu med, cong Cs]
+20.1 +16.6 80 +23 +23 комфорт 1011.9 1008.7 +23.6 0.8
18 16.08 Ю 4 20 км {гроза, ливн. осадки} 9/0
[Ac trans Ci fib]
+17.6 +16.1 91 +17 +17 1011.7 1008.4
21 16.08 Ю 4 20 км 6/0
[Ac trans Ci fib]
+16.6 +15.3 92 +16 +16 1010.8 1007.5
00 17.08 Ю 5 20 км 9/4 1000 м
[Sc Ac trans Ci fib]
+17.4 +15.8 90 +17 +17 1010.5 1007.2
03 17.08 Ю 5
{10}
20 км 10/0
[Cs]
+19.3 +15.2 77 +21 +22 комфорт 1009.8 1006.6 +16.4 0.6
06 17.08 Ю 6-10
{11}
20 км 10/4 1000 м
[Cb calv Cs]
+19.8 +14.3 71 +21 +23 комфорт 1009.7 1006.4
09 17.08 Ю 5
{11}
20 км в посл. час ливневой дождь 10/3 600 м
[Cb cap Cs]
+17.9 +16.0 89 +17 +19 1010.3 1007.1
12 17.08 Ю 7-12
{14}
50 км {ливн. осадки} 8/3 600 м
[Cb cap Ci fib]
+19.5 +14.9 75 +21 +21 комфорт 1010.4 1007.2
15 17.08 Ю 4
{12}
20 км 8/4 600 м
[Cb cap Ac trans]
+17.0 +15.1 89 +17 +17 1010.9 1007.6 +20.1 0.0
18 17.08 ЮЗ 4
{12}
20 км 8/3 1000 м
[Cb cap Ac trans]
+15.0 +12.5 85 +14 +14 1011.5 1008.2
21 17.08 ЮЗ 4 20 км 8/3 1000 м
[Cb cap Ac trans]
+11.7 +10.9 95 +9 +9 1012.2 1008.9
00 18.08 ЮЗ 4 50 км 9/0
[Ac trans Ci fib]
+11.1 +10.7 97 +9 +9 1013.4 1010.0
03 18.08 СЗ 2 20 км 10/6 150 м
[St Ac As]
+13.7 +12.4 92 +13 +13 1014.2 1010.9 +10.1
06 18.08 З 4 50 км 10/6 270 м
[St Ac As]
+13.4 +10.8 84 +12 +12 1014.9 1011.6
09 18.08 З 4 50 км 10/10 500 м
[Sc]
+14.5 +10.2 75 +13 +13 1015.6 1012.3
12 18.08 СЗ 3 50 км 8/3 600 м
[Cb cap Ac trans Ci fib]
+14.7 +9.5 71 +14 +15 1016.2 1012.9
15 18.08 СЗ 3 20 км 10/10 800 м
[Sc]
+13.8 +11.2 84 +13 +13 1017.1 1013.8 +15.2
18 18.08 С 5
{11}
20 км {ливн. осадки} 8/0
[Ac trans]
+10.9 +9.0 88 +8 +8 1018.8 1015.4
21 18.08 С 5
{11}
20 км 10/10 240 м
[St]
+9.7 +8.5 92 +6 +6 1019.7 1016.3
00 19.08 С 7-12
{13}
20 км 10/10 210 м
[St]
+9.1 +7.9 92 +5 +5 1020.6 1017.2
03 19.08 С 7-12
{12}
20 км {морось} 10/10 180 м
[St]
+9.3 +7.7 90 +5 +5 1021.3 1017.9 +8.7 0.9
06 19.08 С 6-11
{12}
20 км {морось} 10/10 210 м
[St]
+10.6 +8.6 87 +7 +7 1021.9 1018.5
09 19.08 С 6-12
{12}
20 км 10/10 240 м
[St]
+11.8 +9.9 88 +9 +9 1022.3 1018.9
12 19.08 С 6
{12}
50 км 10/10 450 м
[Sc]
+13.3 +10.3 82 +11 +11 1022.9 1019.6
15 19.08 С 5
{11}
20 км 9/9 480 м
[Sc]
+12.3 +10.4 88 +10 +10 1023.7 1020.3 +13.4
18 19.08 С 5
{11}
20 км 10/10 480 м
[Sc]
+11.6 +10.3 92 +9 +9 1024.1 1020.8
21 19.08 С 5 20 км 10/10 180 м
[St]
+10.7 +9.7 94 +8 +8 1024.3 1020.9
00 20.08 С 5
{10}
20 км 10/10 120 м
[St]
+10.2 +9.5 95 +7 +7 1024.8 1021.4
03 20.08 СВ 5
{10}
20 км 10/10 150 м
[St]
+10.0 +8.9 93 +7 +7 1025.1 1021.7 +9.4
06 20.08 С 6
{10}
50 км 8/5 330 м
[Sc Ci fib]
+12.9 +9.9 82 +10 +12 1025.2 1021.8
09 20.08 СВ 4 50 км 3/0
[Ci fib]
+16.5 +11.3 71 +16 +19 1024.8 1021.4
12 20.08 СВ 4 50 км 3/0
[Ci fib]
+16.3 +11.5 73 +16 +17 1024.8 1021.5
15 20.08 С 3 20 км 3/0
[Ci fib]
+13.5 +11.1 85 +12 +12 1024.8 1021.4 +17.1
18 20.08 С 3 20 км ясно +10.5 +9.5 94 +8 +8 1024.7 1021.3
21 20.08 СВ 3 20 км ясно +8.9 +7.9 93 +6 +6 1024.1 1020.7
00 21.08 С 2 50 км ясно +8.0 +7.5 97 +6 +6 1023.8 1020.4
03 21.08 С 2 500 м туман ?/? +9.0 +8.6 97 +7 +7 1023.5 1020.1 +7.9
06 21.08 С 3 20 км {туман} 8/8 180 м
[Sc]
+12.4 +10.1 86 +11 +12 1022.6 1019.2
09 21.08 С 2 50 км 8/0
[Ci fib]
+15.6 +11.5 77 +16 +20 1021.6 1018.3
12 21.08 С 2 50 км 3/0
[Ci fib]
+17.5 +12.5 72 +18 +19 1020.7 1017.4
15 21.08 С 2 20 км 3/0
[Ci fib]
+14.5 +12.7 89 +14 +14 1020.0 1016.7 +17.7
18 21.08 С 2 20 км 3/0
[Ac trans]
+11.8 +11.1 95 +11 +11 1019.2 1015.9
21 21.08 С 1 20 км 3/0
[Ac trans]
+10.7 +10.4 98 +10 +10 1018.1 1014.7
00 22.08 С 2 500 м туман ясно +9.6 +9.4 99 +8 +8 1017.4 1014.0
03 22.08 С 1 200 м туман 8/0
[Ci fib]
+11.7 +11.5 99 +11 +15 1016.7 1013.3 +9.5
06 22.08 СВ 2 50 км {туман} 6/0
[Ci fib]
+16.8 +13.0 78 +17 +23 1015.2 1011.9
09 22.08 ЮВ 1 50 км 8/1 600 м
[Cu med, cong Ci fib]
+19.3 +11.3 60 +21 +26 комфорт 1014.1 1010.8

 

Местоположение метеостанции Тазовский (Ямало-Ненецкий АО, Россия): широта 67.47 долгота 78.73 высота над уровнем моря 28 м.

В архиве по умолчанию представлена погода в Тазовском за последнюю неделю. Архивные данные за месяц целиком и за предыдущие месяцы, начиная с января 2011 года, Вы можете получить, выбрав интересующий диапазон дат из раскрывающегося списка и нажав кнопку "Ввод!".


*Определитесь, кто Вы:
робот инопланетянин человек

Внимание! Время в таблицах - всемирное. Для получения местного времени необходимо прибавить поправку, которая равна 5 ч.

Смотрите также архив погоды в соседних городах и на ближайших метеорологических станциях:

Погода в Уренгое (Ямало-Ненецкий АО, Россия) (170 км)
Погода в Новом Уренгое (Ямало-Ненецкий АО, Россия) (175 км)
Погода в Антипаюте (Ямало-Ненецкий АО, Россия) (195 км)
Погода в Советской Речке (Красноярский край, Россия) (231 км)
Погода в Новом Порте (Ямало-Ненецкий АО, Россия) (249 км)
Погода в Красноселькупске (Ямало-Ненецкий АО, Россия) (256 км)
Погода в Пангодах (Ямало-Ненецкий АО, Россия) (261 км)
Погода в Ныде (Ямало-Ненецкий АО, Россия) (268 км)
Погода в Тарко-Сале (Ямало-Ненецкий АО, Россия) (287 км)
Погода в Игарке (Красноярский край, Россия) (334 км)

Пояснения к столбцам:

Ветер - указаны скорость ветра в м/с - средняя за 10 мин, порывы в срок и между сроками (в фигурных скобках) и направление, откуда дует ветер: С - северный, СВ - северо-восточный, В - восточный, ЮВ - юго-восточный, Ю - южный, ЮЗ - юго-западный, З - западный, СЗ - северо-западный.
Видимость - горизонтальная дальность видимости в метрах или километрах. При видимости от 1 до 10 км при отсутствии осадков обычно наблюдается дымка, при ухудшении видимости до 1 км и менее - туман. В сухую погоду видимость может ухудшаться дымом, пылью или мглою.
Явления - указаны атмосферные явления, наблюдавшиеся в срок или в последний час перед сроком; фигурными скобками обозначены явления, наблюдавшиеся между сроками (за 1-3 часа до срока); квадратными скобками обозначены град или гололедные отложения с указанием их диаметра в мм.
Облачность - указаны через наклонную черту общая и нижняя облачность в баллах и высота нижней границы облаков в метрах; квадратными скобками обозначены формы облаков: Ci - перистые, Cs - перисто-слоистые, Cc - перисто-кучевые, Ac - высококучевые, As - высокослоистые, Sc - слоисто-кучевые, Ns - слоисто-дождевые, Cu - кучевые, Cb - кучево-дождевые. Подробнее классификацию облаков см. в Атласе облаков (PDF).
T - Температура воздуха - температура, измеренная на высоте 2 м над землей.
Td - Температура точки росы - температура, при понижении до которой содержащийся в воздухе водяной пар достигнет насыщения.
f - Относительная влажность воздуха - влажноcть воздуха, измеренная на высоте 2 м над землей.
Te - Эффективная температура - температура, которую ощущает одетый по сезону человек в тени. Характеристика душности погоды. При расчете учитывается влияние влажности воздуха и скорости ветра на теплоощущения человека.
Tes - Эффективная температура на солнце - температура, которую ощущает человек, с поправкой на солнечный нагрев. Характеристика знойности погоды. Зависит от высоты солнца над горизонтом, облачности и скорости ветра. Ночью, в пасмурную погоду, а также при ветре 12 м/с и более поправка равна нулю.
P - Атмосферное давление - приведенное к уровню моря атмосферное давление.
Po - Атмосферное давление - измеренное на уровне метеостанции атмосферное давление.
Tmin - Минимальная температура - минимум температуры воздуха на высоте 2 м над землей.
Tmax - Максимальная температура - максимум температуры воздуха на высоте 2 м над землей.
R - Количество осадков - Количество выпавших осадков за период времени, мм. При наведении курсора мыши на число - период времени, за который выпало указанное количество осадков.
R24 - Количество осадков - Количество выпавших осадков за 24 часа, мм.
S - Снежный покров - Высота снежного покрова, см. При наведении курсора мыши на число - состояние снежного покрова и степень покрытия местности в баллах.